Temp
-17 -16 -14 -13 -13 -14 -13 -13 -12 -12 -12 -11 -11 -10 -11 -11 -11 -11 -11 -10 -10 -10 -9 -9 -9 -9 -9 -9 -9 -9 -9 -9 -9 -9 -9 -9 -8 -8 -8 -8 -8 -8 -8 -8
-17 -16 -16 -15 -14 -14 -13 -13 -13 -13 -12 -12 -11 -11 -12 -11 -11 -11 -10 -10 -11 -11 -10 -10 -9 -10 -10 -10 -10 -9 -9 -9 -9 -9 -9 -9 -9 -9 -9 -9 -9 -8 -8 -8
-17 -17 -16 -16 -15 -15 -14 -13 -13 -13 -13 -12 -12 -11 -11 -11 -11 -11 -11 -10 -10 -9 -10 -10 -10 -10 -10 -10 -10 -10 -9 -9 -9 -9 -9 -9 -9 -9 -9 -9 -9 -9 -8 -8
-17 -17 -16 -16 -16 -15 -15 -14 -14 -13 -13 -13 -12 -11 -11 -11 -11 -11 -11 -10 -11 -11 -11 -11 -11 -11 -11 -11 -10 -10 -10 -10 -10 -9 -9 -9 -9 -9 -9 -9 -9 -9 -9 -9
-18 -17 -16 -16 -16 -15 -15 -14 -14 -13 -13 -13 -13 -12 -11 -11 -11 -10 -11 -11 -11 -11 -11 -11 -11 -11 -11 -11 -11 -10 -10 -10 -10 -11 -10 -10 -9 -9 -9 -8 -8 -8 -8 -8
-18 -18 -17 -17 -16 -16 -16 -15 -14 -13 -13 -13 -12 -12 -12 -11 -10 -11 -11 -11 -11 -11 -11 -11 -11 -11 -11 -11 -11 -11 -11 -11 -11 -11 -10 -10 -10 -9 -9 -8 -8 -8 -8 -7
-17 -17 -17 -17 -17 -17 -16 -15 -14 -14 -13 -12 -12 -12 -11 -11 -11 -11 -11 -11 -11 -11 -11 -11 -11 -11 -10 -10 -11 -11 -11 -11 -11 -11 -10 -10 -10 -9 -9 -8 -8 -8 -9 -9
-16 -16 -16 -16 -16 -14 -14 -14 -13 -13 -12 -12 -12 -12 -11 -11 -11 -11 -11 -11 -11 -11 -11 -11 -11 -11 -11 -12 -12 -12 -12 -12 -11 -11 -11 -10 -10 -9 -10 -9 -9 -9 -9 -10
-17 -17 -17 -17 -16 -16 -14 -14 -14 -13 -13 -13 -12 -12 -12 -11 -11 -11 -11 -12 -12 -12 -12 -12 -12 -12 -12 -12 -13 -13 -12 -12 -12 -11 -11 -11 -10 -10 -10 -11 -10 -11 -11 -11
-17 -16 -17 -16 -16 -15 -15 -15 -14 -13 -13 -13 -12 -12 -12 -12 -12 -12 -12 -12 -12 -12 -12 -12 -12 -13 -13 -13 -13 -13 -13 -13 -13 -12 -12 -11 -11 -12 -12 -13 -13 -13 -12 -12
-16 -16 -15 -15 -14 -14 -14 -14 -14 -14 -14 -13 -13 -14 -14 -14 -14 -14 -14 -13 -13 -13 -13 -13 -13 -14 -14 -13 -13 -13 -13 -13 -13 -13 -13 -13 -13 -13 -13 -12 -12 -12 -12 -13
-16 -16 -16 -15 -16 -16 -16 -15 -15 -15 -15 -15 -16 -16 -16 -16 -15 -15 -15 -15 -14 -14 -14 -13 -14 -14 -14 -14 -14 -14 -14 -14 -14 -14 -14 -14 -13 -13 -13 -12 -13 -13 -13 -13
-16 -16 -16 -16 -16 -17 -16 -16 -16 -17 -17 -17 -17 -17 -17 -16 -16 -16 -16 -16 -15 -15 -15 -15 -15 -14 -15 -15 -15 -15 -15 -15 -15 -14 -14 -13 -13 -13 -13 -14 -14 -14 -14 -14
-17 -17 -17 -16 -16 -16 -17 -16 -17 -17 -17 -17 -16 -16 -16 -16 -16 -16 -16 -16 -15 -15 -15 -14 -15 -15 -15 -15 -15 -15 -15 -15 -15 -14 -14 -13 -14 -14 -14 -13 -13 -13 -13 -13
-17 -17 -17 -17 -17 -17 -17 -17 -17 -17 -17 -17 -16 -16 -16 -16 -16 -15 -15 -15 -14 -14 -14 -15 -15 -15 -15 -15 -15 -15 -15 -15 -14 -14 -13 -13 -13 -13 -13 -14 -14 -14 -13 -13
-17 -18 -18 -17 -17 -17 -17 -17 -18 -18 -17 -17 -16 -16 -16 -16 -16 -16 -15 -14 -14 -14 -14 -15 -14 -14 -15 -15 -15 -15 -15 -14 -14 -13 -13 -13 -14 -14 -14 -14 -14 -13 -13 -13
-17 -17 -17 -17 -17 -17 -17 -17 -17 -17 -17 -17 -16 -16 -16 -16 -16 -17 -15 -15 -14 -14 -15 -15 -15 -15 -15 -15 -15 -15 -15 -14 -14 -13 -13 -14 -14 -14 -14 -14 -14 -13 -13 -12
-17 -18 -17 -17 -17 -17 -17 -17 -17 -17 -16 -16 -16 -16 -16 -16 -16 -16 -16 -15 -15 -15 -15 -15 -15 -14 -14 -14 -15 -15 -14 -14 -14 -14 -14 -14 -13 -14 -14 -14 -13 -13 -13 -13
-17 -17 -17 -17 -17 -17 -17 -17 -17 -16 -16 -16 -16 -16 -16 -16 -16 -16 -15 -15 -15 -15 -15 -15 -15 -15 -15 -14 -15 -15 -15 -15 -15 -14 -14 -14 -14 -14 -14 -13 -13 -13 -13 -13
-17 -17 -17 -17 -17 -16 -16 -17 -16 -16 -16 -16 -16 -16 -16 -16 -16 -15 -15 -15 -15 -15 -15 -15 -15 -15 -15 -15 -15 -15 -15 -15 -15 -14 -14 -14 -14 -13 -14 -13 -13 -13 -13 -13
-16 -16 -16 -16 -16 -16 -16 -16 -16 -16 -17 -16 -16 -16 -16 -15 -15 -15 -15 -15 -15 -15 -15 -15 -15 -15 -16 -16 -16 -16 -16 -15 -15 -14 -14 -14 -14 -14 -13 -13 -13 -13 -13 -13
-17 -16 -16 -16 -16 -16 -16 -16 -16 -17 -17 -16 -16 -16 -16 -16 -16 -16 -16 -16 -16 -16 -16 -16 -16 -16 -16 -16 -15 -15 -15 -14 -14 -14 -14 -14 -14 -14 -13 -13 -13 -13 -13 -14
-17 -17 -16 -16 -16 -16 -17 -17 -17 -17 -17 -17 -17 -17 -16 -16 -16 -16 -16 -16 -16 -16 -15 -15 -15 -15 -15 -15 -15 -15 -15 -15 -15 -15 -14 -14 -14 -13 -13 -13 -13 -13 -14 -14
-17 -16 -16 -16 -16 -16 -16 -17 -17 -16 -16 -16 -16 -16 -17 -16 -15 -15 -15 -15 -15 -15 -15 -15 -15 -15 -15 -16 -15 -15 -15 -15 -15 -15 -14 -14 -14 -14 -13 -13 -13 -14 -14 -14
-16 -16 -16 -16 -16 -16 -17 -17 -16 -16 -16 -16 -16 -17 -17 -16 -16 -16 -16 -16 -16 -16 -16 -16 -16 -15 -15 -15 -15 -15 -15 -15 -15 -14 -14 -14 -14 -14 -13 -13 -13 -14 -14 -14
-16 -16 -16 -16 -16 -16 -16 -16 -16 -16 -15 -16 -16 -16 -16 -16 -16 -16 -16 -16 -16 -16 -16 -16 -15 -15 -15 -15 -15 -15 -15 -15 -15 -15 -14 -14 -14 -14 -14 -14 -14 -14 -14 -14
Height
5654 5665 5675 5692 5705 5713 5725 5736 5745 5752 5761 5772 5781 5788 5792 5799 5806 5814 5821 5829 5835 5842 5849 5855 5861 5868 5872 5873 5875 5879 5881 5884 5886 5887 5888 5887 5885 5882 5880 5879 5877 5875 5872 5870
5654 5662 5673 5684 5693 5704 5713 5726 5740 5748 5756 5765 5772 5779 5784 5791 5799 5807 5814 5821 5829 5834 5840 5846 5850 5856 5861 5864 5866 5870 5872 5875 5878 5878 5877 5876 5875 5874 5873 5871 5870 5867 5865 5863
5652 5662 5672 5680 5689 5700 5709 5722 5734 5743 5749 5757 5765 5772 5780 5787 5795 5801 5808 5814 5820 5828 5834 5838 5842 5846 5849 5852 5855 5858 5860 5863 5865 5865 5865 5864 5864 5864 5864 5863 5861 5859 5857 5855
5648 5658 5668 5678 5686 5697 5707 5717 5729 5735 5743 5752 5758 5768 5776 5782 5788 5795 5801 5808 5813 5818 5824 5830 5834 5837 5839 5842 5845 5848 5850 5851 5853 5853 5854 5854 5852 5853 5853 5851 5849 5847 5845 5844
5648 5658 5666 5674 5686 5694 5703 5713 5724 5732 5737 5743 5754 5760 5770 5774 5781 5790 5795 5800 5805 5810 5816 5820 5824 5828 5832 5834 5836 5840 5841 5842 5842 5842 5844 5844 5842 5841 5842 5840 5840 5838 5835 5832
5647 5656 5664 5674 5681 5690 5698 5708 5720 5728 5734 5741 5748 5757 5761 5772 5778 5780 5786 5792 5795 5800 5805 5811 5814 5820 5824 5827 5828 5830 5831 5832 5833 5833 5832 5833 5834 5834 5832 5831 5830 5827 5825 5822
5648 5656 5663 5671 5677 5686 5694 5704 5715 5724 5729 5736 5740 5749 5758 5765 5769 5774 5779 5782 5787 5792 5797 5802 5807 5810 5813 5817 5819 5820 5821 5821 5822 5823 5822 5822 5822 5821 5821 5819 5817 5815 5814 5812
5648 5658 5664 5670 5679 5687 5691 5701 5710 5716 5721 5728 5734 5742 5749 5756 5762 5765 5770 5774 5779 5785 5789 5792 5796 5800 5804 5808 5809 5811 5811 5812 5813 5813 5813 5812 5811 5811 5809 5808 5807 5805 5802 5800
5652 5659 5667 5673 5680 5685 5692 5699 5706 5713 5718 5723 5730 5736 5739 5746 5753 5758 5761 5766 5771 5776 5781 5786 5788 5792 5794 5796 5798 5800 5803 5804 5804 5803 5803 5802 5801 5800 5799 5798 5795 5793 5792 5790
5655 5662 5668 5675 5680 5686 5692 5701 5706 5711 5718 5722 5727 5732 5735 5740 5745 5750 5755 5759 5764 5769 5773 5776 5781 5783 5784 5786 5789 5791 5793 5792 5793 5793 5794 5794 5792 5791 5789 5788 5786 5784 5783 5781
5655 5663 5668 5673 5678 5683 5689 5692 5700 5706 5712 5717 5721 5726 5729 5733 5737 5742 5746 5751 5756 5760 5764 5768 5772 5775 5776 5778 5780 5781 5782 5782 5783 5784 5784 5783 5782 5781 5780 5779 5776 5774 5771 5768
5654 5660 5669 5676 5680 5685 5690 5695 5700 5705 5711 5713 5718 5723 5725 5728 5731 5735 5739 5743 5748 5752 5756 5761 5764 5766 5769 5772 5773 5774 5775 5775 5776 5776 5776 5776 5776 5773 5770 5768 5765 5762 5759 5756
5659 5663 5667 5671 5678 5681 5686 5692 5698 5703 5706 5711 5716 5721 5723 5726 5729 5731 5734 5738 5742 5745 5749 5753 5757 5760 5763 5765 5766 5767 5767 5767 5769 5769 5768 5767 5765 5763 5761 5758 5754 5752 5750 5747
5658 5663 5669 5674 5679 5684 5688 5693 5697 5701 5705 5711 5716 5719 5721 5724 5727 5729 5731 5734 5738 5740 5743 5746 5750 5753 5756 5758 5760 5760 5761 5762 5761 5760 5759 5759 5758 5755 5752 5748 5746 5744 5740 5737
5660 5665 5670 5674 5678 5683 5689 5693 5697 5701 5706 5709 5714 5716 5718 5720 5723 5724 5726 5727 5730 5735 5737 5739 5743 5748 5751 5754 5756 5756 5754 5753 5752 5751 5752 5751 5748 5745 5742 5740 5738 5734 5730 5726
5658 5664 5669 5674 5679 5684 5689 5693 5696 5700 5704 5707 5710 5712 5714 5716 5717 5718 5716 5717 5721 5725 5728 5734 5740 5743 5745 5746 5747 5748 5747 5745 5744 5746 5746 5743 5740 5737 5734 5732 5729 5724 5719 5713
5660 5664 5669 5675 5679 5683 5689 5692 5695 5699 5702 5704 5707 5709 5711 5712 5714 5713 5707 5708 5711 5716 5721 5728 5733 5735 5736 5737 5739 5738 5738 5738 5739 5739 5737 5734 5731 5728 5725 5722 5718 5713 5709 5703
5660 5665 5669 5673 5677 5683 5687 5690 5693 5696 5699 5702 5704 5706 5708 5709 5709 5710 5709 5710 5713 5716 5720 5724 5726 5728 5728 5729 5729 5730 5732 5732 5731 5730 5727 5725 5722 5719 5717 5713 5709 5703 5698 5690
5659 5663 5667 5671 5676 5681 5685 5689 5692 5695 5699 5700 5701 5702 5704 5704 5705 5706 5708 5709 5712 5715 5718 5720 5721 5722 5720 5722 5722 5723 5723 5724 5723 5721 5719 5716 5713 5712 5708 5703 5698 5693 5685 5676
5656 5661 5666 5671 5675 5678 5684 5686 5689 5693 5696 5696 5697 5698 5698 5699 5701 5702 5704 5705 5708 5710 5713 5715 5714 5715 5715 5715 5715 5716 5717 5717 5715 5712 5709 5707 5705 5701 5697 5693 5688 5681 5672 5665
5653 5658 5663 5668 5671 5676 5682 5684 5686 5690 5694 5693 5694 5695 5696 5698 5699 5699 5701 5703 5705 5707 5708 5709 5710 5709 5709 5708 5709 5710 5710 5708 5705 5703 5700 5697 5694 5691 5688 5682 5676 5668 5661 5655
5650 5654 5659 5664 5668 5673 5678 5681 5683 5685 5686 5688 5690 5692 5693 5695 5695 5697 5699 5700 5701 5703 5704 5704 5704 5705 5705 5704 5704 5703 5700 5697 5694 5692 5690 5687 5685 5681 5676 5670 5664 5658 5653 5648
5646 5650 5656 5662 5666 5668 5671 5674 5676 5679 5681 5683 5685 5687 5689 5691 5692 5693 5695 5697 5697 5698 5699 5699 5699 5699 5698 5697 5695 5692 5690 5687 5685 5683 5681 5678 5674 5669 5665 5660 5654 5649 5645 5641
5642 5647 5652 5657 5661 5663 5665 5668 5669 5672 5675 5677 5678 5680 5683 5686 5687 5689 5691 5691 5692 5692 5692 5691 5690 5689 5688 5687 5685 5684 5681 5678 5676 5673 5669 5666 5663 5660 5656 5650 5645 5640 5637 5634
5637 5643 5648 5651 5654 5658 5661 5663 5665 5667 5669 5671 5672 5674 5677 5679 5681 5683 5684 5684 5684 5684 5684 5683 5682 5681 5679 5677 5675 5673 5670 5668 5665 5663 5660 5657 5654 5650 5645 5640 5636 5633 5631 5628
5631 5639 5642 5645 5648 5653 5656 5659 5661 5662 5664 5666 5668 5671 5673 5675 5676 5677 5677 5678 5678 5677 5676 5675 5673 5672 5670 5669 5667 5664 5662 5659 5656 5654 5651 5648 5644 5640 5636 5631 5627 5626 5624 5621
Wind_Speed
52 53 55 54 55 57 57 57 57 55 56 55 58 63 65 66 68 64 56 46 53 53 51 48 45 42 40 38 38 40 39 39 39 38 39 42 47 47 43 38 36 39 41 44
49 51 53 54 58 59 58 55 53 52 53 55 57 58 60 62 59 58 59 56 56 49 47 43 43 42 39 37 38 40 42 42 42 44 44 45 45 44 39 38 36 39 39 39
45 48 49 50 53 54 55 54 52 51 52 55 56 56 56 58 61 61 60 58 57 55 53 52 56 54 49 47 48 48 50 49 49 48 47 49 47 47 45 43 45 46 46 47
42 44 43 44 48 49 48 49 49 50 52 52 54 54 53 53 54 58 60 61 60 58 57 55 52 50 49 50 49 47 49 53 52 51 51 50 50 47 47 51 52 53 53 51
36 38 40 42 41 42 42 41 44 49 49 52 52 54 53 55 54 49 52 55 57 58 58 58 56 56 54 53 53 53 52 50 48 47 48 49 50 50 48 51 53 54 55 55
33 34 36 35 36 38 37 39 41 44 47 49 50 51 53 51 51 54 53 51 51 51 52 52 54 52 52 50 48 46 46 45 45 46 49 50 50 51 53 52 52 52 53 56
33 33 31 32 34 32 35 36 39 42 45 49 51 50 51 51 52 52 52 53 52 51 51 50 49 50 50 48 47 46 45 43 45 47 49 50 50 51 52 53 52 51 52 54
36 35 36 36 35 38 41 40 42 46 49 51 51 51 52 51 52 53 53 54 52 51 50 50 49 49 48 46 46 43 42 39 39 43 46 47 48 49 48 48 49 47 47 49
33 32 30 30 31 35 36 37 39 43 46 48 48 48 52 53 53 53 53 53 52 51 49 49 49 48 43 40 40 38 37 38 39 43 45 46 46 46 49 48 48 47 48 49
27 26 24 25 26 26 26 25 32 34 37 40 42 43 48 47 49 50 50 49 47 47 48 45 41 35 34 36 38 38 40 43 45 46 46 47 50 49 45 43 42 43 44 44
28 25 28 28 29 27 27 28 31 30 33 36 41 38 36 36 47 43 41 44 43 45 44 43 34 35 38 39 40 39 39 39 40 43 46 46 45 40 41 36 36 37 37 37
30 27 20 20 19 17 16 13 16 15 17 19 20 24 23 21 21 21 26 30 33 36 34 34 38 41 41 35 35 35 33 31 30 32 34 34 35 35 32 33 35 37 38 40
22 24 24 24 23 21 18 16 15 12 14 18 8 14 17 17 18 24 28 29 30 33 33 36 38 39 34 34 35 33 29 27 27 30 34 34 35 34 36 36 37 40 41 44
25 24 23 21 19 18 18 15 15 13 13 18 10 11 7 13 14 19 29 28 31 33 33 33 34 33 34 32 30 27 24 26 31 35 36 34 34 35 36 36 38 40 44 48
29 28 26 24 23 19 16 12 13 12 11 14 10 12 9 10 11 15 24 36 35 34 35 36 35 32 32 29 31 29 30 33 35 40 35 37 36 37 37 37 40 44 47 50
34 33 29 26 21 19 16 16 17 18 18 14 10 11 13 9 9 16 25 33 38 39 44 39 33 33 32 34 34 34 35 38 38 37 38 37 37 38 38 40 43 45 49 52
30 30 29 24 22 19 17 15 15 14 13 11 8 9 10 12 13 12 10 15 23 25 22 27 31 35 34 31 33 35 38 35 35 34 36 37 38 39 39 41 45 49 52 54
31 32 31 26 25 21 17 15 13 13 9 11 12 7 7 12 11 6 3 13 18 18 8 11 16 21 26 35 32 35 35 32 32 34 37 39 38 38 40 45 47 48 51 55
31 33 33 31 29 22 19 13 9 7 3 6 11 13 10 11 14 10 11 11 14 17 17 17 13 29 35 30 30 35 35 36 35 37 38 37 36 39 40 41 45 49 53 51
30 31 31 27 29 24 16 13 10 12 7 6 9 5 5 10 13 12 10 12 15 16 15 24 26 28 27 26 26 29 33 38 38 36 36 35 35 36 39 45 47 51 49 47
31 30 30 27 27 25 19 17 14 10 10 9 7 6 7 12 15 15 15 12 13 13 14 16 17 17 19 22 28 36 37 35 35 35 33 33 34 38 42 45 47 48 46 37
31 31 29 27 25 22 16 16 16 15 13 12 12 14 14 13 15 18 18 16 16 16 16 18 19 21 23 25 28 29 29 29 30 30 32 34 36 39 43 44 48 44 36 32
30 29 26 21 15 11 13 14 17 18 17 17 17 18 20 16 15 14 14 16 16 17 19 20 21 21 22 22 23 25 26 29 30 31 32 34 38 42 42 44 44 38 29 29
34 28 24 21 19 19 19 17 22 25 25 25 25 23 21 22 17 16 18 17 17 18 19 19 20 21 23 24 25 26 28 30 31 33 34 37 38 38 40 44 39 28 26 27
33 28 26 23 21 18 18 17 18 20 21 22 21 19 20 18 16 16 16 17 17 19 20 22 23 24 25 27 28 30 32 33 34 34 35 35 34 36 40 40 31 26 24 24
31 27 24 22 24 24 22 18 15 16 13 13 16 16 16 16 15 17 18 20 22 22 23 24 26 28 29 31 32 33 35 35 35 33 33 33 34 36 37 35 27 22 21 22
Wind_Direction
193 200 199 199 202 205 208 208 206 204 205 207 209 211 218 223 227 229 232 236 235 242 247 250 252 252 251 250 248 245 249 257 264 265 261 269 275 282 290 288 283 283 281 282
196 196 198 196 199 203 206 205 204 205 205 207 209 210 214 219 226 232 237 237 240 241 243 247 250 251 251 252 253 256 259 260 262 266 269 271 275 282 286 280 277 278 279 284
196 195 198 198 200 203 206 205 202 205 207 207 210 213 214 221 221 228 232 237 241 242 244 249 253 258 259 260 263 263 264 266 268 272 273 276 279 281 281 274 270 275 276 276
191 191 197 201 201 205 206 206 202 204 207 211 212 215 216 220 224 226 231 235 239 244 247 248 252 256 258 260 263 266 268 273 275 276 278 278 280 279 278 278 274 275 275 272
181 185 194 196 201 204 207 209 206 206 208 212 212 217 218 220 225 229 231 235 239 243 246 249 251 254 257 260 262 265 270 272 273 275 279 279 278 279 278 277 275 274 275 276
177 179 190 195 196 199 205 206 205 206 212 216 217 218 222 223 227 229 232 235 238 241 244 248 251 253 255 258 261 263 266 269 272 275 274 274 276 277 276 274 272 273 273 275
171 178 184 188 190 190 194 198 201 205 211 217 221 221 224 223 228 231 232 236 239 242 247 249 251 253 253 256 261 264 266 267 267 270 273 274 275 274 273 273 274 275 273 272
174 177 181 186 190 197 194 198 201 202 207 214 218 222 224 226 227 232 234 237 239 241 244 250 254 258 262 265 264 266 267 260 261 267 265 267 269 270 272 273 273 272 273 277
177 177 183 188 194 188 199 203 203 208 211 215 219 222 228 228 228 231 236 238 241 244 245 246 250 256 263 259 259 255 251 261 260 261 260 261 267 268 275 277 279 281 284 285
170 175 174 186 187 193 197 214 213 217 217 223 229 229 232 234 236 237 237 241 244 247 250 253 255 257 254 252 254 255 256 255 257 261 263 268 271 275 280 284 290 292 291 291
165 171 175 180 189 191 199 201 204 214 222 225 230 231 240 242 242 243 245 244 244 245 247 249 246 242 246 251 256 256 256 258 259 264 267 270 276 283 290 291 288 286 286 288
173 175 192 180 181 178 188 198 200 211 216 219 223 229 242 240 238 228 223 225 232 235 236 238 236 241 244 244 245 249 247 252 257 263 267 277 287 288 282 283 287 291 294 295
179 181 182 177 172 174 172 165 159 166 172 168 191 188 209 213 217 218 214 218 220 227 228 234 236 239 241 241 242 243 244 254 263 267 275 278 275 277 285 289 291 291 293 295
174 178 181 182 177 177 173 174 172 170 169 185 178 189 203 217 221 223 219 215 221 227 230 235 233 231 237 237 238 240 253 262 258 257 262 269 281 288 288 287 289 292 293 292
175 181 181 183 184 184 188 196 192 199 183 202 197 216 222 192 202 223 224 221 216 216 228 227 228 232 237 252 247 251 256 259 259 260 268 285 283 285 287 288 288 290 292 295
183 184 191 190 193 193 194 198 189 201 217 226 226 223 227 218 227 262 255 234 230 230 237 241 244 248 248 245 249 256 258 259 262 265 273 277 282 286 286 286 289 295 299 298
187 191 197 200 201 204 207 209 214 219 227 216 240 258 258 240 246 297 317 178 208 198 193 210 223 235 246 251 254 258 253 260 260 265 272 281 285 285 286 290 297 298 300 301
193 197 201 202 208 204 212 209 227 227 226 239 247 263 253 253 255 272 313 151 186 200 203 224 224 238 265 253 249 253 257 262 265 272 277 280 283 286 292 292 297 300 304 305
203 201 210 211 211 210 210 213 218 211 223 249 232 240 253 243 237 226 225 202 195 201 210 233 257 268 253 264 250 259 257 263 271 275 276 280 286 287 291 301 306 307 310 310
211 206 211 213 218 214 195 206 208 209 219 239 195 208 236 209 201 217 229 226 215 214 231 238 240 257 258 264 260 256 263 270 271 275 281 283 283 294 302 305 308 311 311 311
214 212 210 210 215 219 211 215 230 235 235 224 226 243 255 226 222 225 224 229 237 238 239 247 254 263 269 272 266 263 267 269 272 275 278 290 297 300 302 308 309 313 311 308
222 221 218 218 222 227 229 228 241 240 233 242 245 246 253 252 232 222 226 239 242 246 254 256 256 256 258 258 259 262 268 272 278 288 293 294 296 302 307 310 313 311 307 306
223 223 225 224 216 218 227 233 232 232 233 242 254 248 243 245 233 226 228 238 244 247 250 255 258 263 267 270 276 283 287 288 288 289 290 294 300 305 308 310 310 308 303 303
217 217 221 221 231 242 247 235 234 234 242 253 258 259 246 236 239 238 242 243 251 261 266 273 279 284 286 286 286 288 291 294 296 297 299 302 304 305 307 309 309 300 299 302
211 217 221 231 224 215 217 227 235 240 248 253 250 245 235 234 241 245 252 264 277 287 291 292 293 293 294 296 297 298 298 299 300 301 301 300 302 306 307 308 303 294 295 305
206 209 223 235 237 227 228 230 240 249 242 241 223 227 230 237 247 262 277 288 292 290 291 295 298 300 300 299 298 298 298 300 302 302 300 301 303 306 305 305 293 290 296 307